Weather History for Dyersburg, TN

Change the Weather History Date:

Tuesday, June 17, 2014

  Actual Average Record
Temperature  
Mean Temperature 82 °F -  
Max Temperature 91 °F 83 °F 96 °F (2007)
Min Temperature 73 °F 65 °F 59 °F (1999)
Cooling Degree Days 17    
Growing Degree Days 32 (Base 50)    
Moisture  
Dew Point 65 °F    
Average Humidity 57    
Maximum Humidity 73    
Minimum Humidity 41    
Precipitation  
Precipitation 0.00 in - - ()
Sea Level Pressure  
Sea Level Pressure 30.07 in    
Wind  
Wind Speed 6 mph (SSW)    
Max Wind Speed 14 mph    
Max Gust Speed 21 mph    
Visibility 10 miles    
Events      
Averages and records for this station are not official NWS values.
T = Trace of Precipitation, MM = Missing Value Source: NWS Daily Summary

Daily Weather History Graph

Daily Weather History Graph

Search for Another Location

Airport:

Trip Planner

Search our weather history database for the weather conditions in past years. The results will help you decide how hot, cold, wet, or windy it might be!

Date:

Astronomy

Jun. 17, 2014 Rise Set
Actual Time 5:40 AM CDT 8:16 PM CDT
Civil Twilight 5:10 AM CDT 8:46 PM CDT
Nautical Twilight 4:32 AM CDT 9:24 PM CDT
Astronomical Twilight 3:50 AM CDT 10:06 PM CDT
Moon 11:55 PM CDT (6/17) 10:46 AM CDT (6/17)
Length of Visible Light 15h 36m
Length of Day
14h 36m
Waning Gibbous, 73% of the Moon is Illuminated
Jun 17
Waning Gibbous
Jun 19
Last Quarter
Jun 27
New
Jul 5
First Quarter
Jul 12
Full

Hourly Weather History & Observations

Time (CDT) Temp. Heat Index Dew Point Humidity Pressure Visibility Wind Dir Wind Speed Gust Speed Precip Events Conditions
12:15 AM 77.0 °F - 64.4 °F 65% 30.07 in 10.0 mi South 3.5 mph - N/A   Clear
12:35 AM 77.0 °F - 64.4 °F 65% 30.06 in 10.0 mi South 3.5 mph - N/A   Clear
12:55 AM 75.2 °F - 64.4 °F 69% 30.06 in 10.0 mi South 3.5 mph - N/A   Clear
1:15 AM 75.2 °F - 64.4 °F 69% 30.06 in 10.0 mi South 4.6 mph - N/A   Clear
1:35 AM 75.2 °F - 64.4 °F 69% 30.05 in 10.0 mi South 5.8 mph - N/A   Clear
1:55 AM 75.2 °F - 64.4 °F 69% 30.05 in 10.0 mi South 4.6 mph - N/A   Clear
2:15 AM 75.2 °F - 64.4 °F 69% 30.04 in 10.0 mi South 3.5 mph - N/A   Clear
2:35 AM 75.2 °F - 64.4 °F 69% 30.04 in 10.0 mi SSE 4.6 mph - N/A   Clear
2:55 AM 75.2 °F - 64.4 °F 69% 30.04 in 10.0 mi South 3.5 mph - N/A   Clear
3:15 AM 75.2 °F - 64.4 °F 69% 30.04 in 10.0 mi South 4.6 mph - N/A   Clear
3:35 AM 75.2 °F - 64.4 °F 69% 30.04 in 10.0 mi South 5.8 mph - N/A   Clear
3:55 AM 75.2 °F - 64.4 °F 69% 30.05 in 10.0 mi SSW 4.6 mph - N/A   Clear
4:15 AM 75.2 °F - 64.4 °F 69% 30.05 in 10.0 mi South 4.6 mph - N/A   Clear
4:35 AM 75.2 °F - 64.4 °F 69% 30.06 in 10.0 mi South 4.6 mph - N/A   Clear
4:55 AM 75.2 °F - 64.4 °F 69% 30.07 in 10.0 mi South 3.5 mph - N/A   Clear
5:15 AM 75.2 °F - 64.4 °F 69% 30.07 in 10.0 mi SSE 4.6 mph - N/A   Clear
5:35 AM 73.4 °F - 64.4 °F 73% 30.08 in 10.0 mi South 3.5 mph - N/A   Clear
6:15 AM 75.2 °F - 64.4 °F 69% 30.09 in 10.0 mi South 5.8 mph - N/A   Clear
6:35 AM 75.2 °F - 64.4 °F 69% 30.10 in 10.0 mi South 4.6 mph - N/A   Clear
6:55 AM 75.2 °F - 64.4 °F 69% 30.10 in 10.0 mi South 5.8 mph - N/A   Clear
7:15 AM 77.0 °F - 66.2 °F 69% 30.10 in 10.0 mi South 8.1 mph - N/A   Clear
7:55 AM 80.6 °F 82.7 °F 66.2 °F 61% 30.12 in 10.0 mi SW 8.1 mph - N/A   Clear
8:15 AM 80.6 °F 82.7 °F 66.2 °F 61% 30.12 in 10.0 mi SW 8.1 mph - N/A   Clear
8:35 AM 82.4 °F 84.6 °F 66.2 °F 58% 30.13 in 10.0 mi SW 11.5 mph 18.4 mph N/A   Clear
8:55 AM 82.4 °F 84.6 °F 66.2 °F 58% 30.13 in 10.0 mi SW 9.2 mph - N/A   Clear
9:15 AM 82.4 °F 84.6 °F 66.2 °F 58% 30.12 in 10.0 mi SW 10.4 mph - N/A   Clear
9:35 AM 82.4 °F 84.6 °F 66.2 °F 58% 30.12 in 10.0 mi SW 10.4 mph - N/A   Partly Cloudy
9:55 AM 84.2 °F 87.3 °F 68.0 °F 58% 30.12 in 10.0 mi SW 11.5 mph - N/A   Scattered Clouds
10:15 AM 84.2 °F 87.3 °F 68.0 °F 58% 30.12 in 10.0 mi SW 8.1 mph - N/A   Scattered Clouds
10:35 AM 84.2 °F 86.6 °F 66.2 °F 55% 30.12 in 10.0 mi SSW 9.2 mph 18.4 mph N/A   Mostly Cloudy
10:55 AM 86.0 °F 88.2 °F 66.2 °F 51% 30.12 in 10.0 mi SW 10.4 mph 17.3 mph N/A   Mostly Cloudy
11:15 AM 86.0 °F 88.2 °F 66.2 °F 51% 30.12 in 10.0 mi SW 12.7 mph 19.6 mph N/A   Scattered Clouds
11:35 AM 87.8 °F 90.4 °F 66.2 °F 49% 30.11 in 10.0 mi SW 11.5 mph 20.7 mph N/A   Scattered Clouds
11:55 AM 87.8 °F 90.4 °F 66.2 °F 49% 30.11 in 10.0 mi SW 10.4 mph - N/A   Partly Cloudy
12:15 PM 89.6 °F 92.2 °F 66.2 °F 46% 30.11 in 10.0 mi SSW 9.2 mph - N/A   Partly Cloudy
12:35 PM 89.6 °F 93.4 °F 68.0 °F 49% 30.11 in 10.0 mi SW 11.5 mph 16.1 mph N/A   Partly Cloudy
12:55 PM 87.8 °F 90.4 °F 66.2 °F 49% 30.10 in 10.0 mi SW 9.2 mph - N/A   Mostly Cloudy
1:15 PM 87.8 °F 90.4 °F 66.2 °F 49% 30.10 in 10.0 mi SSW 10.4 mph - N/A   Mostly Cloudy
1:35 PM 87.8 °F 90.4 °F 66.2 °F 49% 30.09 in 10.0 mi SW 8.1 mph - N/A   Mostly Cloudy
1:55 PM 87.8 °F 90.4 °F 66.2 °F 49% 30.08 in 10.0 mi SW 9.2 mph - N/A   Mostly Cloudy
2:15 PM 89.6 °F 92.2 °F 66.2 °F 46% 30.08 in 10.0 mi SSW 6.9 mph - N/A   Mostly Cloudy
2:35 PM 89.6 °F 92.2 °F 66.2 °F 46% 30.07 in 10.0 mi SW 8.1 mph - N/A   Scattered Clouds
2:55 PM 89.6 °F 92.2 °F 66.2 °F 46% 30.06 in 10.0 mi SSW 9.2 mph 17.3 mph N/A   Partly Cloudy
3:15 PM 91.4 °F 93.2 °F 64.4 °F 41% 30.06 in 10.0 mi SW 13.8 mph 19.6 mph N/A   Partly Cloudy
3:35 PM 91.4 °F 93.2 °F 64.4 °F 41% 30.05 in 10.0 mi SSW 9.2 mph - N/A   Clear
3:55 PM 91.4 °F 94.0 °F 66.2 °F 43% 30.05 in 10.0 mi SSW 9.2 mph - N/A   Partly Cloudy
4:15 PM 89.6 °F 92.2 °F 66.2 °F 46% 30.04 in 10.0 mi SW 8.1 mph - N/A   Scattered Clouds
4:35 PM 91.4 °F 94.0 °F 66.2 °F 43% 30.04 in 10.0 mi South 8.1 mph - N/A   Scattered Clouds
4:55 PM 91.4 °F 94.0 °F 66.2 °F 43% 30.03 in 10.0 mi SSW 5.8 mph - N/A   Scattered Clouds
5:15 PM 91.4 °F 94.0 °F 66.2 °F 43% 30.03 in 10.0 mi SSW 9.2 mph - N/A   Partly Cloudy
5:35 PM 89.6 °F 92.2 °F 66.2 °F 46% 30.03 in 10.0 mi SSW 6.9 mph - N/A   Partly Cloudy
5:55 PM 89.6 °F 92.2 °F 66.2 °F 46% 30.03 in 10.0 mi South 6.9 mph - N/A   Scattered Clouds
6:15 PM 89.6 °F 92.2 °F 66.2 °F 46% 30.02 in 10.0 mi South 4.6 mph - N/A   Partly Cloudy
6:35 PM 89.6 °F 92.2 °F 66.2 °F 46% 30.02 in 10.0 mi SSW 6.9 mph - N/A   Partly Cloudy
6:55 PM 89.6 °F 91.1 °F 64.4 °F 43% 30.02 in 10.0 mi SSW 6.9 mph - N/A   Partly Cloudy
7:15 PM 87.8 °F 89.4 °F 64.4 °F 46% 30.03 in 10.0 mi South 5.8 mph - N/A   Clear
7:35 PM 87.8 °F 90.4 °F 66.2 °F 49% 30.03 in 10.0 mi South 3.5 mph - N/A   Clear
7:55 PM 84.2 °F 85.6 °F 64.4 °F 51% 30.03 in 10.0 mi Calm Calm - N/A   Clear
8:15 PM 84.2 °F 85.6 °F 64.4 °F 51% 30.04 in 10.0 mi South 3.5 mph - N/A   Clear
8:35 PM 82.4 °F 83.9 °F 64.4 °F 54% 30.05 in 10.0 mi South 3.5 mph - N/A   Clear
8:55 PM 82.4 °F 83.9 °F 64.4 °F 54% 30.05 in 10.0 mi SSE 4.6 mph - N/A   Clear
9:15 PM 82.4 °F 83.9 °F 64.4 °F 54% 30.05 in 10.0 mi SSE 4.6 mph - N/A   Clear
9:35 PM 80.6 °F 82.3 °F 64.4 °F 58% 30.06 in 10.0 mi SSE 3.5 mph - N/A   Clear
9:55 PM 80.6 °F 82.3 °F 64.4 °F 58% 30.06 in 10.0 mi SSE 4.6 mph - N/A   Clear
10:15 PM 80.6 °F 82.3 °F 64.4 °F 58% 30.07 in 10.0 mi Calm Calm - N/A   Clear
10:35 PM 80.6 °F 82.3 °F 64.4 °F 58% 30.07 in 10.0 mi South 3.5 mph - N/A   Clear
10:55 PM 80.6 °F 82.3 °F 64.4 °F 58% 30.08 in 10.0 mi South 4.6 mph - N/A   Clear
11:15 PM 80.6 °F 82.3 °F 64.4 °F 58% 30.07 in 10.0 mi SSE 3.5 mph - N/A   Clear
11:35 PM 78.8 °F - 64.4 °F 61% 30.07 in 10.0 mi South 4.6 mph - N/A   Clear
11:55 PM 78.8 °F - 64.4 °F 61% 30.07 in 10.0 mi South 3.5 mph - N/A   Clear